sat.trackr.live / text

‹ back to catalog

STARLINK-30470

NORAD 57892 · 2023-146B

PAYLOAD ACTIVE UNKNOWN

§ Identity

Operator
Country
US
Launch date
2023-09-20
Launch site
AFETR
Launch vehicle
Mass (kg)
RCS (m²)

Purposes: comms

External: N2YO · Heavens-Above · Gunter

§ Orbital elements

Epoch: 2026-09-20T08:55:34.758048Z

Period
94.27 min
Inclination
43.0029°
Eccentricity
0.0001147
Mean motion
15.27575728 rev/d
Perigee alt
482.3 km
Apogee alt
483.8 km
Semi-major
6,861.2 km
B*
1.5031e-5
RAAN
294.4655°
Arg perigee
264.8408°
Mean anomaly
95.2313°
Rev number
16,683

§ Raw data

STARLINK-304701 57892U 23146B   26263.37193007  .00000152  00000+0  15031-4 0  99972 57892  43.0029 294.4655 0001147 264.8408  95.2313 15.27575728166837

JSON: /api/v1/satellites/57892 · /tle

For live sub-satellite position, see the globe view (requires WebGL).

§ Visibility from observer

Set your observer location to see the next 7 days of passes ≥ 10°. The values pass through the URL so the page stays shareable.

No JS? Fill the form by hand. The geolocation button needs JavaScript.